Juneau, WI

8:58 PM CDT on April 19, 2018 (GMT -0500)
Dodge County

Weather History for KUNU - October, 2011

Change the Weather History Date:

Friday, October 7, 2011

  Actual Average Record
Temperature  
Mean Temperature 66 °F -  
Max Temperature 80 °F 62 °F 84 °F (2007)
Min Temperature 53 °F 43 °F 24 °F (1989)
Cooling Degree Days 2    
Growing Degree Days 16 (Base 50)    
Moisture  
Dew Point 46 °F    
Average Humidity 51    
Maximum Humidity 77    
Minimum Humidity 23    
Precipitation  
Precipitation 0.00 in - - ()
Sea Level Pressure  
Sea Level Pressure 30.22 in    
Wind  
Wind Speed 10 mph (SSE)    
Max Wind Speed 22 mph    
Max Gust Speed 29 mph    
Visibility 10 miles    
Events      
Averages and records for this station are not official NWS values.
T = Trace of Precipitation, MM = Missing Value Source: NWS Daily Summary

Daily Weather History Graph

Daily Weather History Graph

Search for Another Location

Airport or City:

Astronomy

Oct. 07, 2011 Rise Set
Actual Time 6:58 AM CDT 6:25 PM CDT
Civil Twilight 6:30 AM CDT 6:54 PM CDT
Nautical Twilight 5:57 AM CDT 7:27 PM CDT
Astronomical Twilight 5:23 AM CDT 8:00 PM CDT
Moon 4:14 PM CDT (10/7) 2:40 AM CDT (10/7)
Length of Visible Light 12h 23m
Length of Day
11h 26m
Waxing Gibbous, 83% of the Moon is Illuminated
Oct 7
Waxing Gibbous
Oct 11
Full
Oct 19
Last Quarter
Oct 26
New
Nov 2
First Quarter

Hourly Weather History & Observations

Time (CDT) Temp. Dew Point Humidity Pressure Visibility Wind Dir Wind Speed Gust Speed Precip Events Conditions
12:15 AM 60.8 °F 46.4 °F 59% 30.22 in 10.0 mi SE 10.4 mph - N/A   Clear
12:35 AM 59.0 °F 46.4 °F 63% 30.21 in 10.0 mi SE 10.4 mph - N/A   Clear
12:55 AM 59.0 °F 46.4 °F 63% 30.21 in 10.0 mi SE 10.4 mph - N/A   Clear
1:15 AM 59.0 °F 46.4 °F 63% 30.22 in 10.0 mi SE 10.4 mph - N/A   Clear
1:35 AM 59.0 °F 46.4 °F 63% 30.22 in 10.0 mi SE 10.4 mph - N/A   Clear
1:55 AM 59.0 °F 46.4 °F 63% 30.22 in 10.0 mi SE 9.2 mph - N/A   Clear
2:15 AM 59.0 °F 46.4 °F 63% 30.22 in 10.0 mi SSE 8.1 mph - N/A   Clear
2:35 AM 59.0 °F 46.4 °F 63% 30.22 in 10.0 mi SSE 5.8 mph - N/A   Clear
2:55 AM 59.0 °F 46.4 °F 63% 30.22 in 10.0 mi SE 6.9 mph - N/A   Clear
3:15 AM 57.2 °F 46.4 °F 67% 30.22 in 10.0 mi SE 6.9 mph - N/A   Clear
3:55 AM 55.4 °F 46.4 °F 72% 30.23 in 10.0 mi SE 6.9 mph - N/A   Clear
4:15 AM 55.4 °F 46.4 °F 72% 30.24 in 10.0 mi SE 8.1 mph - N/A   Clear
4:35 AM 53.6 °F 46.4 °F 77% 30.24 in 10.0 mi SE 5.8 mph - N/A   Clear
4:55 AM 55.4 °F 46.4 °F 72% 30.25 in 10.0 mi SSE 5.8 mph - N/A   Clear
5:15 AM 55.4 °F 46.4 °F 72% 30.26 in 10.0 mi SSE 6.9 mph - N/A   Clear
5:35 AM 55.4 °F 46.4 °F 72% 30.26 in 10.0 mi SSE 4.6 mph - N/A   Clear
6:15 AM 55.4 °F 46.4 °F 72% 30.27 in 10.0 mi SSE 5.8 mph - N/A   Clear
6:35 AM 55.4 °F 46.4 °F 72% 30.27 in 10.0 mi SSE 5.8 mph - N/A   Clear
6:55 AM 53.6 °F 46.4 °F 77% 30.27 in 10.0 mi SE 3.5 mph - N/A   Clear
7:15 AM 53.6 °F 46.4 °F 77% 30.27 in 10.0 mi SE 5.8 mph - N/A   Clear
7:35 AM 53.6 °F 46.4 °F 77% 30.28 in 10.0 mi SE 5.8 mph - N/A   Clear
7:55 AM 57.2 °F 48.2 °F 72% 30.28 in 10.0 mi SE 6.9 mph - N/A   Clear
8:15 AM 59.0 °F 50.0 °F 72% 30.28 in 10.0 mi SSE 8.1 mph - N/A   Clear
8:35 AM 62.6 °F 50.0 °F 63% 30.28 in 10.0 mi South 9.2 mph - N/A   Clear
8:55 AM 64.4 °F 50.0 °F 59% 30.28 in 10.0 mi SSE 8.1 mph - N/A   Clear
9:15 AM 66.2 °F 50.0 °F 56% 30.28 in 10.0 mi South 8.1 mph - N/A   Clear
9:55 AM 69.8 °F 50.0 °F 49% 30.28 in 10.0 mi South 12.7 mph 18.4 mph N/A   Clear
10:15 AM 71.6 °F 48.2 °F 43% 30.28 in 10.0 mi South 11.5 mph - N/A   Clear
10:35 AM 71.6 °F 48.2 °F 43% 30.27 in 10.0 mi South 12.7 mph 20.7 mph N/A   Clear
10:55 AM 73.4 °F 48.2 °F 41% 30.26 in 10.0 mi South 12.7 mph - N/A   Clear
11:15 AM 75.2 °F 46.4 °F 36% 30.25 in 10.0 mi South 11.5 mph 18.4 mph N/A   Clear
11:35 AM 75.2 °F 46.4 °F 36% 30.25 in 10.0 mi South 21.9 mph 28.8 mph N/A   Clear
12:15 PM 77.0 °F 44.6 °F 32% 30.25 in 10.0 mi SSW 19.6 mph 25.3 mph N/A   Clear
12:35 PM 77.0 °F 44.6 °F 32% 30.24 in 10.0 mi SSW 18.4 mph 26.5 mph N/A   Clear
12:55 PM 77.0 °F 44.6 °F 32% 30.23 in 10.0 mi South 16.1 mph 20.7 mph N/A   Clear
1:15 PM 77.0 °F 44.6 °F 32% 30.22 in 10.0 mi South 17.3 mph 23.0 mph N/A   Clear
1:35 PM 78.8 °F 42.8 °F 28% 30.22 in 10.0 mi South 17.3 mph 24.2 mph N/A   Clear
1:55 PM 77.0 °F 42.8 °F 29% 30.21 in 10.0 mi SSE 16.1 mph - N/A   Clear
2:15 PM 78.8 °F 42.8 °F 28% 30.20 in 10.0 mi South 20.7 mph 27.6 mph N/A   Clear
2:35 PM 78.8 °F 42.8 °F 28% 30.20 in 10.0 mi South 15.0 mph 21.9 mph N/A   Clear
2:55 PM 78.8 °F 41.0 °F 26% 30.19 in 10.0 mi South 18.4 mph 25.3 mph N/A   Clear
3:15 PM 80.6 °F 39.2 °F 23% 30.19 in 10.0 mi South 18.4 mph 26.5 mph N/A   Clear
3:35 PM 80.6 °F 41.0 °F 24% 30.19 in 10.0 mi SSE 16.1 mph 25.3 mph N/A   Clear
3:55 PM 80.6 °F 41.0 °F 24% 30.19 in 10.0 mi South 19.6 mph 23.0 mph N/A   Clear
4:15 PM 80.6 °F 41.0 °F 24% 30.19 in 10.0 mi South 19.6 mph 26.5 mph N/A   Clear
4:35 PM 78.8 °F 44.6 °F 30% 30.18 in 10.0 mi SSE 15.0 mph - N/A   Clear
4:55 PM 78.8 °F 44.6 °F 30% 30.18 in 10.0 mi South 18.4 mph 21.9 mph N/A   Clear
5:35 PM 77.0 °F 44.6 °F 32% 30.17 in 10.0 mi SSE 12.7 mph - N/A   Clear
5:55 PM 77.0 °F 44.6 °F 32% 30.17 in 10.0 mi SSE 12.7 mph - N/A   Clear
6:15 PM 73.4 °F 44.6 °F 36% 30.17 in 10.0 mi SSE 10.4 mph - N/A   Clear
6:35 PM 71.6 °F 46.4 °F 41% 30.18 in 10.0 mi SE 6.9 mph - N/A   Clear
6:55 PM 69.8 °F 48.2 °F 46% 30.18 in 10.0 mi SE 6.9 mph - N/A   Clear
7:15 PM 68.0 °F 50.0 °F 52% 30.18 in 10.0 mi SE 9.2 mph - N/A   Clear
7:35 PM 68.0 °F 50.0 °F 52% 30.19 in 10.0 mi SE 9.2 mph - N/A   Clear
7:55 PM 68.0 °F 50.0 °F 52% 30.19 in 10.0 mi SE 9.2 mph - N/A   Clear
8:15 PM 68.0 °F 50.0 °F 52% 30.19 in 10.0 mi SE 9.2 mph - N/A   Clear
8:35 PM 64.4 °F 50.0 °F 59% 30.20 in 10.0 mi SE 9.2 mph - N/A   Clear
8:55 PM 64.4 °F 50.0 °F 59% 30.19 in 10.0 mi SE 11.5 mph - N/A   Clear
9:15 PM 64.4 °F 50.0 °F 59% 30.19 in 10.0 mi SE 12.7 mph - N/A   Clear
9:35 PM 64.4 °F 50.0 °F 59% 30.19 in 10.0 mi SE 12.7 mph - N/A   Clear
9:55 PM 64.4 °F 50.0 °F 59% 30.19 in 10.0 mi SE 12.7 mph - N/A   Clear
10:15 PM 66.2 °F 48.2 °F 52% 30.19 in 10.0 mi SE 11.5 mph - N/A   Clear
10:35 PM 64.4 °F 48.2 °F 56% 30.19 in 10.0 mi SE 11.5 mph - N/A   Clear
10:55 PM 66.2 °F 46.4 °F 49% 30.19 in 10.0 mi SSE 11.5 mph - N/A   Clear
11:15 PM 66.2 °F 46.4 °F 49% 30.19 in 10.0 mi SSE 10.4 mph - N/A   Clear
11:35 PM 64.4 °F 46.4 °F 52% 30.19 in 10.0 mi SSE 10.4 mph - N/A   Clear
11:55 PM 62.6 °F 46.4 °F 55% 30.19 in 10.0 mi SSE 9.2 mph - N/A   Clear